STARLINK-32081, 60348

Orbit data source: Space-Track

STARLINK-32081, 60348 is a payload satellite owned by SpaceX/Seattle (US) in LEO that was launched on Fri, 02 Aug 2024 UTC via an FALCON 9 launch vehicle from the Air Force Eastern Test Range (AFETR). Payload-class satellites include a variety of spacecraft equipped with specific instruments for various scientific and technological missions. These include communications satellites like Starlink; space stations such as the ISS; scientific satellites like the Hubble; Earth observation satellites from companies like Planet Labs, Umbra, and HawkEye 360; GPS; miniature CubeSats for education and research; and military/defense satellites.

Loading next visibility...
Identifier
60348, 2024-136V
Orbit
LEO
Country
Flag of USUS
Related business
Manufacturer
SpaceX/Seattle
Mission
Operational Commercial Communications
Bus & Motor
STARLINK V2M, Unknown motor
Mass
730 kg wet, ~700 kg dry
Launch date (UTC)
2024-08-02 (1 year ago)
Launch vehicle
FALCON 9
Launch site
Air Force Eastern Test Range (AFETR)
Object type
Payload
Rocket body
Debris
Shape & HBR
Box + 2 Pan, 14.5 m
Radar Cross Section
33.884 m², Large (>1 m²)

Expand to show TLE details & history
Last TLE update: 1 day ago

TLE from 1 day ago
0 STARLINK-32081
1 60348U 24136V   25260.12193354  .00004668  00000-0  16958-3 0  9996
2 60348  53.1597 161.6468 0001358 108.4262 251.6886 15.30210473 63095
Epoch: 2025-09-17T02:55Z
TLE epoch observation values (Epoch: 2025-09-17T02:55:35.057Z)
Latitude
-0.00008°
Longitude
121.44825°
Altitude
476.376 km
Speed
7.629 km/s
True Right ascension
10h 46m 35s
True Declination
0° 00' 00"
Sunlit
Object was in daylight at epoch
Visualization orbit readout
Latitude
Unknown
Longitude
Unknown
Altitude
Unknown
Speed
Unknown
Apparent Right ascension
Unknown
Apparent Declination
Unknown
Sunlit
N/A
Visualization observer readout
Local Sidereal Time
20:38:59
Azimuth
Unknown
Elevation
Unknown
Doppler factor
Unknown
Orbital elements
Apogee altitude
476.371 km
Perigee altitude
474.51 km
Semi-major axis
6,853.577 km
Eccentricity
0.00014
Inclination
53.1597°
RAAN
161.6468°
Arg. of periapsis
108.4262°
True anomaly
251.67383°
Mean anomaly
251.6886°
Eccentric anomaly
251.68121°
Mean motion
3.82531 °/min
Orbital period
94.11 mins
BSTAR
0.00016958
Loading maneuver chart data...
Computing Atmospheric mass density...
Loading historical data...
Loading historical data...
Loading historical data...
Loading historical data...
Loading historical data...
Loading historical data...
Loading historical data...

Documentation

Showing up to 5 results
|